Terug naar catalogus

STARLINK-34457

ActiefCommunicatieVLEO
NORAD 64368·PAYLOAD·🇺🇸 United States

Gelanceerd Jun 13, 2025 vanaf Vandenberg Space Force Base

Loading…

Volgende Passages (komende 24 uur)

TLE

VersSource: CelesTrak SupGP

Epoch: Sep 14, 2026, 22:54 UTC

1 64368C 25126AA  26257.95465278  .00070360  00000+0  24493-2 0  2577
2 64368  70.0006 275.4892 0003393 263.2210 183.0188 15.29520889    12

Volg STARLINK-34457 in realtime met AllMySat

Download on the App Store